RH
20 18 14 9 6 3 4 12 19 15 14 27 41 50 53 60 67 75 86 95 97 98 100 100 96 96 97 98 100 95 100 67 24 29 90 94 94 98 98 100 91 91 93
20 18 14 10 6 4 4 10 18 19 12 18 35 46 51 57 64 68 83 94 98 100 100 100 98 96 97 100 96 100 94 93 94 32 63 99 100 98 96 99 86 92 83
21 18 14 10 7 4 4 8 16 21 16 12 23 40 49 51 59 65 80 96 100 100 100 100 99 96 97 98 100 99 100 95 100 99 29 100 100 99 98 95 70 84 78
21 18 15 11 8 5 4 6 11 20 21 13 12 25 42 48 53 64 76 94 100 98 99 99 99 97 97 98 99 100 99 100 100 98 85 84 98 100 97 98 78 93 73
22 19 16 12 9 6 4 4 8 15 21 21 11 13 28 41 49 62 70 87 100 98 97 97 100 97 97 98 98 100 99 99 99 100 84 98 100 100 98 98 87 86 71
22 20 17 13 10 8 4 4 6 10 16 22 20 10 13 28 46 56 66 76 93 98 94 98 100 98 98 98 98 98 99 98 100 100 81 96 99 99 100 99 92 82 73
22 21 18 15 11 9 6 4 4 6 10 16 21 20 10 12 27 46 57 66 81 95 96 97 100 100 98 97 98 98 100 96 100 98 97 91 100 100 99 100 100 86 74
22 22 19 17 13 11 9 6 4 4 6 10 17 22 20 10 11 23 44 55 67 80 91 100 100 100 98 96 97 98 98 99 100 99 98 99 99 100 100 100 99 100 96
22 23 21 19 16 13 10 9 5 4 4 6 10 16 22 22 12 10 16 35 50 61 72 85 97 96 97 100 97 97 98 99 99 100 100 100 100 100 100 100 100 100 100
23 24 24 21 19 16 13 11 8 4 4 4 5 8 14 22 22 17 11 10 22 42 54 61 76 94 98 97 88 96 96 97 98 100 99 99 99 100 99 99 99 100 99
23 24 25 23 21 19 16 13 11 7 4 4 4 4 6 9 15 20 21 17 12 10 25 42 50 60 79 88 87 82 95 96 97 99 99 100 100 99 99 99 99 100 99
24 24 24 25 24 22 19 16 13 11 6 4 4 4 4 4 4 5 7 12 20 20 13 11 26 44 50 64 74 84 86 88 90 96 97 99 99 99 99 99 100 99 99
26 25 25 26 26 24 22 20 17 14 11 6 4 4 4 4 4 4 4 4 4 6 17 21 15 11 29 45 57 76 87 91 76 74 94 98 98 99 99 99 99 99 100
27 26 25 25 26 27 25 23 21 18 14 11 7 5 5 5 5 4 4 4 4 4 4 5 14 20 15 11 24 40 51 67 78 82 92 88 93 98 100 98 98 98 99
29 28 27 26 26 26 27 26 24 22 19 15 12 8 5 5 6 6 5 5 4 4 3 4 4 4 7 15 17 12 15 28 42 56 70 81 82 83 95 95 96 96 98
30 30 29 27 27 26 28 29 28 26 23 20 18 14 11 7 6 6 7 7 6 5 4 3 3 2 3 3 3 5 10 13 12 14 26 42 55 65 73 78 84 89 95
30 31 30 29 29 28 28 27 29 29 27 25 23 20 17 14 10 8 8 8 8 8 7 5 3 3 3 3 2 2 2 2 3 4 10 12 12 16 28 42 55 62 68
29 31 31 31 30 30 30 29 28 29 30 30 27 25 23 20 18 15 12 9 9 9 9 8 7 5 4 3 3 3 3 3 2 2 2 2 2 3 5 9 10 15 25
26 30 30 30 31 32 32 32 31 30 29 30 31 30 28 26 24 21 18 16 14 12 12 11 10 9 7 5 4 4 4 4 3 3 3 2 2 2 2 2 2 2 2
25 29 31 31 30 30 31 32 33 34 32 31 31 32 32 31 29 27 24 22 20 18 15 14 13 12 11 10 9 7 7 6 5 5 5 4 4 4 4 3 3 2 2
25 26 30 32 31 29 28 29 32 33 34 35 34 32 33 34 35 33 31 29 26 24 22 19 17 15 14 14 13 12 11 10 9 8 8 8 7 7 6 6 5 5 4
26 26 28 30 32 31 30 29 29 30 33 36 36 37 36 35 34 35 36 36 34 31 29 26 23 20 18 17 16 15 15 14 14 13 12 11 11 10 10 10 10 9 8
26 26 26 28 31 32 32 30 30 28 28 29 30 33 37 37 38 37 36 37 38 39 37 34 31 28 25 22 20 19 17 17 17 17 16 16 15 15 14 14 14 13 12
24 27 27 26 28 30 31 31 30 29 28 26 26 28 30 33 36 40 41 39 38 39 41 42 40 37 34 30 26 24 22 20 19 19 19 18 18 19 19 18 18 18 18
20 25 27 26 25 26 28 29 30 29 27 26 25 24 26 29 31 34 38 40 43 43 41 42 44 45 44 40 36 31 28 25 23 21 20 20 20 20 21 22 22 22 22
19 21 24 26 26 24 24 24 24 24 24 24 23 22 22 23 26 29 31 35 39 43 48 48 44 45 48 49 47 43 38 33 29 26 24 22 21 21 21 22 23 24 26
Wind_Speed
26 29 30 32 35 36 32 27 26 27 29 32 33 32 30 29 29 30 29 26 24 22 20 19 18 14 19 26 26 27 31 26 31 39 49 50 48 42 31 60 64 60 59
25 28 29 30 34 36 32 27 25 26 27 30 32 32 30 30 31 31 32 29 26 23 21 19 17 16 20 26 25 26 25 30 23 33 43 44 40 33 39 60 67 62 64
24 26 27 29 32 34 32 28 26 25 27 27 29 31 31 30 32 34 35 32 29 26 23 21 19 19 22 25 26 22 22 19 26 26 42 39 24 23 31 63 67 62 57
23 24 26 27 30 33 33 29 27 26 26 28 28 31 31 31 33 35 35 33 30 27 26 24 21 22 24 28 29 22 19 21 29 30 31 37 23 18 34 55 64 60 59
21 23 24 26 29 32 34 32 28 26 26 27 28 29 30 32 35 35 34 34 30 27 27 26 26 24 23 24 29 30 23 21 24 30 25 18 27 23 36 50 66 64 61
20 22 23 25 27 30 33 32 30 27 26 26 26 28 29 33 35 35 33 33 31 26 26 27 29 26 23 23 25 30 29 27 23 32 28 25 21 35 34 57 65 63 59
18 20 22 24 25 28 31 33 33 31 29 27 26 27 29 31 34 35 33 32 31 29 27 28 30 30 24 21 22 24 27 19 26 29 24 19 13 36 35 50 61 60 62
17 19 21 22 23 25 29 32 33 32 30 29 27 27 28 30 31 32 34 32 32 31 29 31 31 31 30 21 19 21 26 31 31 24 19 14 13 23 27 33 30 49 62
15 17 20 21 22 23 26 29 32 33 31 31 30 28 27 28 29 31 31 32 33 33 32 32 33 32 32 26 17 20 21 26 31 27 27 18 17 18 24 26 34 38 48
13 16 18 20 21 22 24 26 30 32 33 32 32 31 30 28 27 28 30 32 33 35 35 33 35 35 29 27 23 18 19 24 24 26 25 23 21 20 17 14 20 30 31
12 15 17 19 20 21 23 24 26 30 32 32 32 31 31 31 29 29 29 29 33 34 35 36 37 36 33 29 27 23 16 17 18 20 22 26 26 23 23 21 17 15 19
13 14 16 18 20 20 21 23 25 27 29 31 32 32 32 32 32 32 32 32 33 32 35 37 38 36 34 32 30 30 25 19 12 13 15 18 20 19 18 18 18 14 13
12 13 15 16 19 20 21 22 23 24 26 28 30 32 33 34 33 33 33 34 35 35 34 34 34 33 33 31 30 27 25 22 19 13 11 14 14 14 13 12 18 18 18
10 12 13 15 17 19 20 20 21 22 24 26 27 29 31 32 33 35 35 35 36 35 33 31 29 28 28 30 29 26 26 25 21 20 17 13 14 13 11 11 11 12 12
10 11 11 13 16 17 18 19 20 20 21 22 24 26 26 26 29 33 35 34 35 36 33 29 26 26 26 26 27 28 28 28 26 24 22 18 14 9 9 9 8 10 8
9 10 11 12 14 15 16 18 18 19 19 20 20 21 22 24 27 28 31 33 33 32 28 28 29 28 27 26 25 26 25 24 25 24 21 18 16 13 11 8 5 5 7
8 9 10 11 12 13 14 15 16 18 18 19 19 20 22 22 23 24 25 28 29 29 27 28 29 30 30 29 28 26 25 25 24 20 19 19 18 16 13 9 7 4 2
7 9 10 10 10 11 12 13 14 16 17 18 19 19 19 20 21 21 21 24 24 23 25 27 28 28 28 28 29 29 28 26 24 23 21 19 16 15 13 11 9 8 6
5 7 9 9 10 10 10 11 12 13 15 16 17 17 18 18 18 19 20 19 18 19 20 22 24 25 25 25 25 26 26 26 26 25 24 23 22 20 17 15 13 11 10
4 6 7 8 8 9 10 10 11 12 13 14 14 15 16 15 16 16 16 16 16 17 17 18 18 19 20 21 22 23 23 23 22 22 22 22 22 21 21 21 19 18 15
3 4 6 7 8 9 9 9 10 10 11 11 12 13 13 13 14 14 15 15 15 15 15 15 15 15 16 17 17 18 18 18 19 19 20 20 20 18 19 19 19 20 20
1 2 3 5 6 7 7 8 8 9 10 10 10 10 11 12 12 13 13 13 13 14 14 14 14 14 14 14 14 14 15 15 15 15 15 15 16 17 17 17 17 17 17
0 1 2 3 5 5 6 7 7 8 9 9 9 10 10 11 11 11 11 11 12 12 12 12 12 12 12 12 12 12 12 12 13 13 12 12 12 12 12 12 13 13 13
2 2 3 3 4 6 6 7 7 8 8 9 9 9 9 10 10 10 10 10 10 10 11 11 11 11 11 11 10 10 10 10 10 10 10 10 9 9 9 10 10 11 12
5 4 3 4 5 5 6 7 8 8 9 9 9 10 10 10 10 11 11 11 11 11 11 11 11 11 11 11 11 11 11 11 11 11 11 11 11 11 11 11 11 12 13
7 6 6 6 6 6 7 7 9 10 11 11 11 11 11 11 11 11 12 12 13 13 13 13 13 13 13 13 13 13 13 14 14 14 14 14 15 15 14 15 15 16 16
Wind_Direction
359 356 359 360 4 7 8 9 7 9 14 14 17 15 13 18 19 16 21 23 29 33 37 38 42 62 88 137 132 141 139 148 165 173 182 183 199 198 183 176 185 185 183
360 360 360 3 8 10 11 11 12 12 16 19 20 19 18 20 24 21 26 29 37 40 44 45 54 68 89 118 128 130 144 148 151 170 180 181 178 166 166 179 186 185 184
1 1 2 6 12 13 14 15 15 15 18 21 23 24 24 25 29 25 26 30 38 46 50 54 65 79 93 105 132 134 136 142 159 155 175 175 174 177 173 182 185 185 185
4 3 5 10 14 16 17 17 18 17 18 21 23 27 28 30 33 29 27 31 38 48 53 58 71 81 88 97 120 135 141 135 141 150 164 195 181 164 177 185 186 186 186
7 5 8 13 17 18 21 21 21 19 21 23 24 28 29 32 37 34 30 33 38 47 57 59 68 79 87 97 106 120 127 141 146 152 158 168 192 153 184 183 181 185 187
9 8 12 17 18 21 24 24 24 24 23 24 25 29 30 33 37 36 34 35 39 47 60 62 68 76 95 113 109 119 128 146 157 162 161 190 164 174 154 183 183 183 187
11 12 17 19 19 22 25 27 28 28 28 27 26 29 33 34 38 38 38 39 42 46 60 67 67 73 84 110 113 115 130 132 143 148 149 172 127 171 167 172 181 189 193
14 17 21 22 21 22 25 28 32 32 31 33 31 32 35 35 39 40 41 43 45 49 53 65 68 71 75 90 112 121 122 134 135 142 140 150 125 151 179 188 185 186 199
18 22 25 26 24 23 26 29 33 35 34 36 36 35 37 38 40 42 43 47 51 54 54 58 64 67 70 74 97 115 124 133 132 142 143 149 158 157 151 169 183 187 190
22 27 28 29 28 27 27 29 32 34 36 38 39 38 39 40 40 45 46 48 51 55 58 61 63 65 67 70 80 99 121 123 125 139 145 143 142 149 159 167 175 178 197
28 31 30 31 32 31 30 29 32 35 37 39 44 43 43 45 45 46 49 50 52 53 56 59 62 63 65 72 78 88 111 104 123 132 147 154 159 161 155 162 179 187 190
34 35 34 34 34 34 33 30 32 34 37 38 42 47 48 48 48 49 50 52 54 53 54 55 56 58 60 63 68 72 77 85 101 130 136 150 162 167 182 175 178 180 169
36 37 36 37 37 36 35 33 33 34 35 37 39 42 47 49 49 50 49 52 52 52 52 52 53 56 58 62 66 68 72 76 83 106 134 148 144 162 171 180 196 208 197
41 43 37 40 39 40 38 37 35 35 34 37 38 39 43 45 48 50 48 47 48 49 50 52 54 55 58 62 67 72 78 80 85 94 104 129 142 147 151 167 175 176 181
45 43 42 41 43 41 39 39 38 37 36 37 38 40 40 42 46 49 51 50 49 48 45 47 51 56 58 60 62 64 66 69 74 72 78 85 99 128 163 184 190 200 201
50 42 44 44 45 43 41 41 39 39 38 38 40 43 44 42 42 43 47 49 51 51 50 55 57 59 60 60 61 61 63 65 68 70 72 76 79 86 95 116 151 186 203
51 46 45 45 45 45 43 43 41 42 41 40 39 39 41 43 45 45 43 45 46 48 49 54 56 58 60 62 62 64 64 61 60 62 62 65 70 71 72 72 80 88 150
51 49 46 48 44 46 44 42 40 42 41 42 41 39 40 43 45 45 45 47 41 39 42 45 50 55 58 60 62 62 61 62 61 60 60 60 57 55 55 58 62 59 62
57 52 49 47 44 43 42 41 38 39 40 41 42 42 41 40 41 44 47 47 45 45 44 43 45 45 48 54 58 60 61 61 62 60 60 60 59 58 55 54 49 41 34
56 51 47 43 44 45 43 36 32 36 35 35 36 38 40 40 39 40 43 45 45 44 45 47 47 48 47 46 44 45 49 53 55 58 57 57 57 55 55 54 52 49 46
51 44 43 37 32 34 36 32 28 30 30 32 30 30 32 34 35 35 34 33 36 39 40 39 40 43 45 46 47 47 46 43 42 40 45 47 49 47 47 46 43 41 39
70 37 33 28 28 28 29 30 23 20 26 24 26 22 20 25 25 28 29 28 27 26 27 29 28 28 30 32 34 34 35 38 41 40 39 39 38 37 37 37 35 34 34
212 332 357 9 9 13 13 15 13 14 16 19 18 13 12 13 14 14 14 16 18 17 16 14 13 14 15 14 14 15 16 17 20 22 24 28 30 32 32 30 29 28 26
233 267 305 334 347 350 353 355 356 1 3 6 9 2 3 1 2 0 0 359 357 358 359 359 357 356 356 356 355 353 352 353 354 353 355 358 2 6 7 10 12 13 12
243 258 285 308 325 334 333 334 336 342 345 351 349 347 351 351 348 346 346 342 340 339 337 336 338 339 338 336 333 331 328 326 325 324 324 325 327 330 332 333 336 340 345
247 263 276 288 297 307 316 321 325 329 331 333 332 333 335 336 335 334 334 333 330 327 323 321 321 322 323 321 318 316 313 312 310 308 306 305 304 305 306 309 312 317 321